This is the latest recevied weather packets stored in our database for station/object KD4WLE. If no packets are shown the sender has not sent any weather packets the latest 10 day(s).
| Time | Temp. | Humidity | Pressure | Rain* | Wind** | Luminosity | Snow |
|---|---|---|---|---|---|---|---|
| 1777903225 | 23.33° C | 71% | 1018.3 hPa | 0 mm | - | 166 W/m² | - |
| 1777902921 | 23.33° C | 71% | 1018.5 hPa | 0 mm | - | 143 W/m² | - |
| 1777902619 | 23.33° C | 71% | 1018.2 hPa | 0 mm | - | 157 W/m² | - |
| 1777902316 | 23.33° C | 70% | 1018.3 hPa | 0 mm | - | 172 W/m² | - |
| 1777902013 | 23.33° C | 72% | 1018.1 hPa | 0 mm | - | 145 W/m² | - |
| 1777901711 | 23.33° C | 71% | 1018 hPa | 0 mm | - | 119 W/m² | - |
| 1777901408 | 24.44° C | 70% | 1018.1 hPa | 0 mm | - | 102 W/m² | - |
| 1777901105 | 24.44° C | 71% | 1017.8 hPa | 0 mm | - | 425 W/m² | - |
| 1777900803 | 25° C | 69% | 1017.7 hPa | 0 mm | - | 393 W/m² | - |
| 1777900500 | 24.44° C | 68% | 1017.6 hPa | 0 mm | - | 351 W/m² | - |
| 1777900197 | 24.44° C | 68% | 1017.7 hPa | 0 mm | - | 317 W/m² | - |
| 1777899893 | 23.89° C | 67% | 1017.7 hPa | 0 mm | - | 306 W/m² | - |
| 1777899590 | 23.89° C | 66% | 1017.8 hPa | 0 mm | - | 279 W/m² | - |
| 1777899288 | 23.89° C | 68% | 1017.7 hPa | 0 mm | - | 267 W/m² | - |
| 1777898985 | 23.89° C | 71% | 1017.5 hPa | 0 mm | - | 248 W/m² | - |
| 1777898682 | 23.89° C | 72% | 1017.5 hPa | 0 mm | - | 236 W/m² | - |
| 1777898379 | 23.33° C | 74% | 1017.2 hPa | 0 mm | - | 212 W/m² | - |
| 1777898076 | 22.78° C | 75% | 1017.3 hPa | 0 mm | - | 202 W/m² | - |
| 1777897767 | 22.22° C | 76% | 1017.3 hPa | 0 mm | - | 65 W/m² | - |
| 1777897463 | 22.78° C | 76% | 1017.4 hPa | 0 mm | - | 56 W/m² | - |
| 1777897160 | 22.78° C | 76% | 1017.2 hPa | 0 mm | - | 91 W/m² | - |
| 1777896855 | 23.33° C | 75% | 1017.2 hPa | 0 mm | - | 157 W/m² | - |
| 1777896553 | 23.33° C | 75% | 1017.3 hPa | 0 mm | - | 157 W/m² | - |
| 1777896250 | 22.78° C | 77% | 1017 hPa | 0 mm | - | 97 W/m² | - |
| 1777895948 | 22.78° C | 77% | 1017 hPa | 0 mm | - | 58 W/m² | - |
* Rain latest hour (hover to see other rain measurements)
** Current wind speed in m/s (hover to see current wind gust speed)